Retour au catalogue

SCOUT B DEB

ActifUNKNOWN
NORAD 2516·DEBRIS·🇺🇸 United States

Lancé Jun 10, 1966 depuis Wallops Flight Facility

Loading…

Prochains Passages (prochaines 24 heures)

TLE

FraisSource: Space-Track

Époque: Sep 9, 2026, 06:17 UTC

1 02516U 66052D   26252.26221708 -.00000235  00000-0 -42942-3 0  9994
2 02516  41.0137 230.4416 2216212 195.2636 156.8863 10.00965670332515

Suivez SCOUT B DEB en temps réel avec AllMySat

Download on the App Store